Location: Ferchesar
(52.6477°N, 12.4298°E)
Time: 21:12:28
(UTC+02:00)

Transit 4A - Pass Details

Date: 07 March 2021
Orbit: 868 x 976 km, 66.8° (Epoch: 10 April)

Event Time Altitude Azimuth Distance (km) Brightness Sun altitude
Rises 19:59:56 0° 310° (NW) 3,562 12.2 -18.7°
Reaches altitude 10° 20:03:59 10° 285° (WNW) 2,589 11.5 -19.3°
Maximum altitude 20:06:31 13° 259° (W) 2,362 10.9 -19.7°
Drops below altitude 10° 20:09:02 10° 234° (SW) 2,552 10.6 -20.0°
Sets 20:12:58 0° 207° (SSW) 3,467 11.0 -20.6°
